Location: Kruen
(47.5000°N, 11.5000°E)
Time: 14:10:38
(UTC+01:00)

BlueWalker 3 - Pass Details

Date: 26 February 2026
Orbit: 451 x 457 km, 53.2° (Epoch: 14 March)

Event Time Altitude Azimuth Distance (km) Brightness Sun altitude
Exits shadow 05:06:13 17° 178° (S) 1,236 3.8 -20.0°
Maximum altitude 05:08:00 24° 137° (SE) 975 3.7 -19.7°
Drops below altitude 10° 05:10:58 10° 81° (E) 1,597 5.7 -19.2°
Sets 05:13:21 0° 67° (ENE) 2,473 6.9 -18.8°
